Location: Newark
(48.2308°N, 120.8549°W)
Time: 22:09:05
(UTC+00:00)

Transit 2A Rocket - All Passes

Search period start: 25 May 2020 00:00
Search period end: 04 June 2020 00:00
Orbit: 585 x 917 km, 66.7° (Epoch: 22 May)

Date Brightness Start Highest point End Pass type
(mag) Time Alt. Az. Time Alt. Az. Time Alt. Az.
25 May - 06:23:28 10° SE 06:25:54 14° ESE 06:28:27 10° ENE visible
25 May - 08:02:29 10° SSW 08:07:29 84° SE 08:13:04 10° NE visible
25 May - 09:46:33 10° W 09:50:52 25° NNW 09:55:30 10° NNE visible
25 May - 11:33:13 10° NNW 11:35:38 13° N 11:38:06 10° NNE visible
25 May - 13:17:31 10° NNW 13:20:50 15° NNE 13:24:14 10° NE daylight
25 May - 14:59:43 10° NNW 15:05:13 37° NE 15:10:50 10° ESE daylight
25 May - 16:42:16 10° NW 16:48:11 59° WSW 16:54:10 10° SSE daylight
25 May - 18:28:22 10° W 18:29:41 11° W 18:30:59 10° WSW daylight
26 May - 07:20:11 10° SSW 07:25:01 52° ESE 07:30:22 10° NE visible
26 May - 09:03:13 10° WSW 09:07:55 34° NW 09:13:03 10° NNE visible
26 May - 10:49:27 10° NW 10:52:22 14° NNW 10:55:23 10° NNE visible
26 May - 12:34:53 10° NNW 12:37:36 13° N 12:40:22 10° NE daylight
26 May - 14:17:16 10° NNW 14:22:17 27° NE 14:27:26 10° E daylight
26 May - 15:59:36 10° NW 16:05:40 87° WSW 16:11:48 10° SSE daylight
26 May - 17:43:35 10° WNW 17:47:34 18° WSW 17:51:32 10° SW daylight
27 May - 06:38:17 10° S 06:42:41 32° ESE 06:47:28 10° NE visible
27 May - 08:20:08 10° WSW 08:25:05 48° NW 08:30:33 10° NNE visible
27 May - 10:05:41 10° WNW 10:09:10 17° NNW 10:12:51 10° NNE visible
27 May - 11:52:00 10° NNW 11:54:18 12° N 11:56:39 10° NNE daylight
27 May - 13:34:49 10° NNW 13:39:15 21° NNE 13:43:48 10° ENE daylight
27 May - 15:17:02 10° NNW 15:23:02 65° NE 15:29:08 10° SE daylight
27 May - 17:00:15 10° NW 17:05:20 29° WSW 17:10:27 10° SSW daylight
28 May - 05:56:55 10° SSE 06:00:28 20° ESE 06:04:15 10° ENE visible
28 May - 07:37:19 10° SW 07:42:23 74° NW 07:48:00 10° NNE visible
28 May - 09:22:00 10° WNW 09:26:03 21° NNW 09:30:21 10° NNE visible
28 May - 11:08:42 10° NNW 11:10:59 12° N 11:13:19 10° NNE visible
28 May - 12:52:21 10° NNW 12:56:08 17° NNE 13:00:01 10° ENE daylight
28 May - 14:34:31 10° NNW 14:40:17 45° NE 14:46:09 10° ESE daylight
28 May - 16:17:17 10° NW 16:23:00 44° WSW 16:28:44 10° S daylight
29 May - 05:16:52 10° ESE 05:18:22 11° E 05:19:55 10° E visible
29 May - 06:54:48 10° SSW 06:59:49 72° ESE 07:05:23 10° NE visible
29 May - 08:38:32 10° W 08:43:01 28° NW 08:47:54 10° NNE visible
29 May - 10:25:04 10° NW 10:27:42 13° N 10:30:24 10° NNE visible
29 May - 12:09:47 10° NNW 12:12:56 14° NNE 12:16:08 10° NE daylight
29 May - 13:52:04 10° NNW 13:57:26 33° NE 14:02:54 10° ESE daylight
29 May - 15:34:32 10° NW 15:40:33 68° WSW 15:46:37 10° SSE daylight
29 May - 17:19:31 10° WNW 17:22:11 13° WSW 17:24:50 10° SW daylight
30 May - 06:12:38 10° S 06:17:23 44° ESE 06:22:37 10° NE visible
30 May - 07:55:16 10° WSW 08:00:07 38° NW 08:05:25 10° NNE visible
30 May - 09:41:17 10° NW 09:44:27 15° NNW 09:47:45 10° NNE visible
30 May - 11:27:04 10° NNW 11:29:39 13° N 11:32:18 10° NE visible
30 May - 13:09:36 10° NNW 13:14:28 25° NNE 13:19:25 10° E daylight
30 May - 14:51:54 10° NW 14:57:59 83° NE 15:04:08 10° SE daylight
30 May - 16:35:34 10° WNW 16:40:02 21° WSW 16:44:29 10° SSW daylight
31 May - 05:30:53 10° SSE 05:35:06 27° ESE 05:39:39 10° NE visible
31 May - 07:12:16 10° SW 07:17:19 56° NW 07:22:55 10° NNE visible
31 May - 08:57:32 10° WNW 09:01:17 18° NNW 09:05:13 10° NNE visible
31 May - 10:44:02 10° NNW 10:46:21 12° N 10:48:43 10° NNE visible
31 May - 12:27:08 10° NNW 12:31:24 20° NNE 12:35:45 10° ENE daylight
31 May - 14:09:21 10° NNW 14:15:19 57° NE 14:21:21 10° SE daylight
31 May - 15:52:24 10° NW 15:57:45 33° WSW 16:03:07 10° S daylight
01 Jun - 04:49:47 10° SE 04:52:55 17° ESE 04:56:13 10° ENE visible
01 Jun - 06:29:33 10° SW 06:34:40 85° WNW 06:40:21 10° NE visible
01 Jun - 08:13:55 10° W 08:18:11 23° NNW 08:22:45 10° NNE visible
01 Jun - 10:00:37 10° NNW 10:03:02 13° N 10:05:32 10° NNE visible
01 Jun - 11:44:38 10° NNW 11:48:14 16° NNE 11:51:55 10° ENE daylight
01 Jun - 13:26:52 10° NNW 13:32:31 40° NE 13:38:17 10° ESE daylight
01 Jun - 15:09:31 10° NW 15:15:23 51° WSW 15:21:15 10° S daylight
02 Jun - 05:47:09 10° SSW 05:52:08 61° ESE 05:57:41 10° NE visible
02 Jun - 07:30:31 10° W 07:35:11 31° NW 07:40:17 10° NNE visible
02 Jun - 09:16:55 10° NW 09:19:46 14° NNW 09:22:43 10° NNE visible
02 Jun - 11:02:02 10° NNW 11:05:00 14° NNE 11:08:03 10° NE visible
02 Jun - 12:44:24 10° NNW 12:49:38 30° NE 12:54:57 10° E daylight
02 Jun - 14:26:49 10° NW 14:32:54 78° WSW 14:39:00 10° SSE daylight
02 Jun - 16:11:12 10° WNW 16:14:39 16° WSW 16:18:06 10° SW daylight
03 Jun - 05:05:07 10° S 05:09:46 38° ESE 05:14:51 10° NE visible
03 Jun - 06:47:21 10° WSW 06:52:20 43° NW 06:57:47 10° NNE visible
03 Jun - 08:33:07 10° WNW 08:36:32 16° NNW 08:40:07 10° NNE visible
03 Jun - 10:19:13 10° NNW 10:21:43 13° N 10:24:16 10° NNE visible
03 Jun - 12:01:56 10° NNW 12:06:37 23° NNE 12:11:24 10° E daylight
03 Jun - 13:44:13 10° NNW 13:50:18 73° NE 13:56:25 10° SE daylight
03 Jun - 15:27:38 10° NW 15:32:28 25° WSW 15:37:17 10° SSW daylight
